Location: Newark
(49.8969°N, 3.3422°E)
Time: 22:28:58
(UTC+00:00)

Tiros 1 - Pass Details

Date: 26 January 2021
Orbit: 630 x 664 km, 48.4° (Epoch: 08 March)

Event Time Altitude Azimuth Distance (km) Brightness Sun altitude
Rises 18:44:57 0° 255° (WSW) 2,927 12.0 -21.3°
Reaches altitude 10° 18:47:17 10° 253° (WSW) 2,016 10.8 -21.7°
Maximum altitude 18:51:53 69° 171° (S) 677 7.1 -22.4°
Enters shadow 18:52:21 63° 131° (SE) 703 7.0 -22.5°
